Albuquerque, NM

1:55 PM MDT on April 29, 2017 (GMT -0600)
Albuquerque International Sunport

Weather History for KABQ - May, 2013

Change the Weather History Date:

Monday, May 27, 2013

  Actual Average Record
Temperature  
Mean Temperature 72 °F 69 °F  
Max Temperature 85 °F 83 °F 98 °F (1951)
Min Temperature 59 °F 56 °F 30 °F (1917)
Degree Days  
Heating Degree Days 0 1  
Month to date heating degree days 63 68  
Since 1 July heating degree days 3894 4172  
Cooling Degree Days 7 5  
Month to date cooling degree days 80 70  
Year to date cooling degree days 88 77  
Growing Degree Days 22 (Base 50)    
Moisture  
Dew Point 11 °F    
Average Humidity 9    
Maximum Humidity 12    
Minimum Humidity 5    
Precipitation  
Precipitation 0.00 in 0.01 in 0.53 in (1937)
Month to date precipitation 0.08 0.43  
Year to date precipitation 0.68 2.47  
Snow  
Snow 0.00 in - - ()
Month to date snowfall 0.0  
Since 1 July snowfall 3.5  
Snow Depth 0.00 in    
Sea Level Pressure  
Sea Level Pressure 29.76 in    
Wind  
Wind Speed 8 mph (SW)    
Max Wind Speed 28 mph    
Max Gust Speed 32 mph    
Visibility 10 miles    
Events      
T = Trace of Precipitation, MM = Missing Value Source: NWS Daily Summary

Daily Weather History Graph

Daily Weather History Graph

Search for Another Location

Airport or City:

Trip Planner

Search our weather history database for the weather conditions in past years. The results will help you decide how hot, cold, wet, or windy it might be!

Date:

Astronomy

May. 27, 2013 Rise Set
Actual Time 5:55 AM MDT 8:12 PM MDT
Civil Twilight 5:26 AM MDT 8:41 PM MDT
Nautical Twilight 4:50 AM MDT 9:16 PM MDT
Astronomical Twilight 4:12 AM MDT 9:55 PM MDT
Moon 10:56 PM MDT (5/27) 8:34 AM MDT (5/27)
Length of Visible Light 15h 14m
Length of Day
14h 16m
Waning Gibbous, 90% of the Moon is Illuminated
May 27
Waning Gibbous
May 31
Last Quarter
Jun 8
New
Jun 16
First Quarter
Jun 23
Full

Hourly Weather History & Observations

Time (MDT) Temp. Dew Point Humidity Pressure Visibility Wind Dir Wind Speed Gust Speed Precip Events Conditions
12:52 AM 66.9 °F 6.1 °F 9% 29.81 in 10.0 mi South 5.8 mph - N/A   Partly Cloudy
1:52 AM 70.0 °F 6.1 °F 8% 29.79 in 10.0 mi SW 9.2 mph - N/A   Scattered Clouds
2:52 AM 66.0 °F 5.0 °F 9% 29.80 in 10.0 mi South 9.2 mph - N/A   Mostly Cloudy
3:52 AM 62.1 °F 5.0 °F 10% 29.81 in 10.0 mi South 4.6 mph - N/A   Mostly Cloudy
4:52 AM 63.0 °F 6.1 °F 11% 29.80 in 10.0 mi WSW 5.8 mph - N/A   Overcast
5:52 AM 61.0 °F 7.0 °F 12% 29.82 in 10.0 mi ENE 3.5 mph - N/A   Mostly Cloudy
6:52 AM 61.0 °F 7.0 °F 12% 29.83 in 10.0 mi South 3.5 mph - N/A   Overcast
7:52 AM 60.1 °F 6.1 °F 12% 29.85 in 10.0 mi SSE 3.5 mph - N/A   Overcast
8:52 AM 64.9 °F 7.0 °F 10% 29.86 in 10.0 mi Calm Calm - N/A   Overcast
9:52 AM 66.9 °F 9.0 °F 10% 29.85 in 10.0 mi WSW 4.6 mph - N/A   Mostly Cloudy
10:52 AM 69.1 °F 8.1 °F 9% 29.83 in 10.0 mi SSW 4.6 mph - N/A   Mostly Cloudy
11:52 AM 73.9 °F 9.0 °F 8% 29.82 in 10.0 mi Variable 4.6 mph - N/A   Mostly Cloudy
12:52 PM 75.0 °F 10.0 °F 8% 29.80 in 10.0 mi SW 4.6 mph - N/A   Overcast
1:52 PM 77.0 °F 10.0 °F 8% 29.76 in 10.0 mi Variable 4.6 mph - N/A   Mostly Cloudy
2:52 PM 80.1 °F 9.0 °F 7% 29.73 in 10.0 mi WSW 3.5 mph - N/A   Mostly Cloudy
3:52 PM 82.9 °F 7.0 °F 6% 29.70 in 10.0 mi SW 17.3 mph 28.8 mph N/A   Scattered Clouds
4:52 PM 84.0 °F 10.9 °F 6% 29.68 in 10.0 mi West 19.6 mph 23.0 mph N/A   Mostly Cloudy
5:52 PM 84.9 °F 14.0 °F 7% 29.67 in 10.0 mi WNW 23.0 mph 31.1 mph N/A   Scattered Clouds
6:52 PM 81.0 °F 19.9 °F 10% 29.68 in 10.0 mi WNW 24.2 mph 31.1 mph N/A   Scattered Clouds
7:52 PM 78.1 °F 19.0 °F 11% 29.69 in 10.0 mi West 17.3 mph - N/A   Scattered Clouds
8:52 PM 75.9 °F 18.0 °F 11% 29.67 in 10.0 mi West 6.9 mph - N/A   Mostly Cloudy
9:52 PM 77.0 °F 18.0 °F 11% 29.67 in 10.0 mi Calm Calm - N/A   Mostly Cloudy
10:52 PM 77.0 °F 17.1 °F 10% 29.68 in 10.0 mi Variable 5.8 mph - N/A   Mostly Cloudy
11:52 PM 73.0 °F 17.1 °F 12% 29.70 in 10.0 mi West 8.1 mph - N/A   Mostly Cloudy